#timestamp,LO_Frequency,Hit,StdDev 
1572591615.6,286047000.7,N
1572591635.5,286046999.3,N
1572591655.3,286046998.8,N
1572591675.1,286046998.6,N
1572591695.9,286046996.6,N
1572591715.7,286046997.1,N
1572591735.6,286046999.1,N
1572591755.4,286046998.6,N
1572591775.2,286046998.9,N
1572591795.1,286046999.6,N
1572591796.0,286046999.6,N
1572591815.8,286046998.2,N
1572591835.6,286046998.6,N
1572591855.5,286047000.7,N
1572591875.3,286047000.3,N
1572591895.2,286047000.8,N
1572591915.9,286047001.0,N
1572591935.7,286047001.2,N
1572591955.6,286047000.9,N
1572591975.4,286046998.7,N
1572591995.2,286046997.3,N
1572592015.1,286046996.6,N
1572592016.0,286046996.6,N
1572592035.8,286046997.1,N
1572592055.7,286046998.7,N
1572592075.5,286046999.1,N
1572592095.3,286046998.7,N
1572592115.2,286046998.9,N
1572592135.0,286046998.0,N
1572592135.9,286046998.0,N
1572592155.8,286046993.5,Y
1572592175.6,286046993.9,P
1572592195.4,286046995.0,N
1572592215.3,286046997.3,N
1572592235.1,286046996.8,N
1572592255.8,286046996.8,N
1572592275.7,286046998.8,N
1572592295.5,286046999.4,N
1572592315.4,286046997.2,N
1572592335.2,286046997.3,N
1572592355.0,286046994.9,Y
1572592386.0,286047002.7,E
1572592395.9,286047000.6,N
1572592415.7,286046998.7,P
1572592435.6,286046998.8,N
1572592455.4,286046999.6,N
1572592475.2,286046997.2,Y
1572592495.1,286046997.2,P
1572592496.0,286046997.2,N
1572592515.8,286046999.3,N
1572592535.7,286047001.1,N
1572592555.5,286047002.2,N
1572592575.3,286047003.1,N
1572592595.2,286047001.3,N
1572592615.0,286047003.6,N
1572592615.9,286047003.6,N
1572592635.8,286047005.4,N
1572592655.6,286047005.3,N
1572592675.4,286047003.6,N
1572592695.3,286047004.4,N
1572592715.1,286047004.4,N
1572592735.8,286047001.3,N
1572592755.7,286047001.5,N
1572592775.5,286047000.1,N
1572592795.3,286047002.7,N
1572592815.2,286047000.6,N
1572592835.0,286046998.5,N
1572592835.9,286046998.5,N
1572592855.8,286047000.1,N
1572592875.6,286046998.3,N
1572592895.4,286047000.6,N
1572592915.3,286046999.7,N
1572592935.1,286047002.3,N
1572592955.8,286047002.6,N
1572592975.7,286047002.1,N
1572592995.5,286047002.1,N
1572593015.4,286047002.3,N
1572593035.2,286047002.6,N
1572593055.0,286046999.8,N
1572593055.9,286046999.8,N
1572593075.8,286047001.0,N
1572593095.6,286047000.2,N
1572593115.4,286047001.0,N
1572593135.3,286047001.6,N
1572593155.1,286047004.2,N
1572593175.9,286047005.8,N
1572593195.7,286047005.3,N
1572593215.5,286047005.7,N
1572593235.4,286047007.5,Y
1572593255.2,286047005.5,P
1572593275.0,286047005.6,N
1572593276.0,286047005.6,P
1572593295.8,286047003.4,N
1572593315.6,286047005.8,Y
1572593335.5,286046999.4,P
1572593355.3,286047000.6,N
1572593375.1,286046996.6,N
1572593395.9,286046996.8,N
1572593415.7,286046997.2,N
1572593435.6,286046998.0,N
1572593455.4,286046995.8,N
1572593475.2,286046992.5,N
1572593495.1,286046992.1,N
1572593496.0,286046992.1,N
1572593515.8,286046992.3,N
1572593535.6,286046991.8,N
1572593555.5,286046992.3,N
1572593575.3,286046994.2,N
1572593595.2,286046991.8,N
1572593615.9,286046994.2,N
1572593635.7,286046995.9,N
1572593655.6,286046996.4,N
1572593675.4,286046995.9,N
1572593695.2,286046995.4,N
1572593715.1,286046998.0,N
1572593716.0,286046998.0,N
1572593735.8,286046996.5,N
1572593755.7,286046998.7,N
1572593775.5,286046999.3,N
1572593795.3,286046998.3,N
1572593815.2,286046998.6,N
1572593835.0,286046998.1,N
1572593835.9,286046998.1,N
1572593855.8,286046998.2,N
1572593875.6,286047002.2,N
1572593895.4,286047002.4,N
1572593915.3,286047000.2,N
1572593935.1,286047001.6,N
1572593955.8,286047002.4,N
1572593975.7,286047000.8,N
1572593995.5,286046998.8,N
1572594015.4,286046997.1,N
1572594035.2,286046996.9,N
1572594055.0,286046996.7,N
1572594055.9,286046996.7,N
1572594075.8,286046997.3,N
1572594095.6,286046997.4,N
1572594115.4,286046994.9,N
1572594135.3,286046994.1,N
1572594155.1,286046991.7,Y
1572594175.9,286046993.8,P
1572594195.7,286046995.1,N
1572594215.5,286046996.1,N
1572594235.4,286046996.4,N
1572594255.2,286046995.6,Y
1572594275.0,286047000.1,P
1572594276.0,286047000.1,N
1572594295.8,286047000.4,N
1572594315.6,286047001.1,N
1572594335.5,286047002.6,N
1572594355.3,286047002.4,N
1572594375.1,286047000.8,N
1572594395.9,286047000.5,N
1572594415.7,286047000.0,N
1572594435.6,286046998.1,N
1572594455.4,286047000.8,N
1572594475.2,286047000.8,N
1572594495.1,286046999.9,N
1572594496.0,286046999.9,N
1572594515.8,286047000.9,N
1572594535.6,286046999.5,N
1572594555.5,286046999.1,N
1572594575.3,286046998.5,N
1572594595.2,286047000.8,N
1572594615.9,286046999.6,N
1572594635.7,286046998.2,N
1572594655.6,286046999.2,N
1572594675.4,286046996.6,N
1572594695.2,286046997.8,N
1572594715.1,286046995.2,Y
1572594716.0,286046995.2,P
1572594735.8,286046997.2,N
1572594755.7,286046999.6,N
1572594775.5,286046998.5,N
1572594795.3,286047001.1,N
1572594815.2,286046998.6,N
1572594835.0,286046997.3,N
1572594835.9,286046997.3,N
1572594855.7,286046997.7,N
1572594875.6,286046998.1,N
1572594895.4,286046998.9,N
1572594915.3,286047001.0,N
1572594935.1,286046999.9,N
1572594936.0,286046999.9,N
1572594955.8,286047002.8,N
1572594975.7,286047000.1,N
1572594995.5,286047001.2,N
1572595015.3,286047000.2,N
1572595035.2,286047000.8,N
1572595055.0,286047001.6,N
1572595055.9,286047001.6,N
1572595075.8,286047000.5,N
1572595095.6,286046998.7,N
1572595115.4,286046994.9,N
1572595135.3,286046998.0,N
1572595155.1,286046995.4,N
1572595175.8,286046997.5,N
1572595195.7,286046993.3,Y
